Regional Weather Roundup
Issued by NWS Wakefield, VA

Home | Current Version | Previous Version | Graphics & Text | Print | Product List | Glossary On
Versions: 1 2 3 4 5 6 7 8 9 10 11 12 13 14 15 16 17 18 19 20 21 22 23 24 25 26 27 28 29 30 31 32 33 34 35 36 37 38 39 40 41 42 43 44 45 46 47 48 49 50
000
ASUS41 KAKQ 200510
RWRAKQ

REGIONAL WEATHER ROUNDUP
NATIONAL WEATHER SERVICE WAKEFIELD VA
1200 AM EST SAT DEC 20 2014

Note: "fair" indicates few or no clouds below 12,000 feet with no
significant weather and/or obstructions to visibility. * = Denotes
station may not report precipitation (e.g., rain,snow,etc.),
thunder or fog.

VAZ042-051-052>054-056-200600-
NORTHERN VIRGINIA

CITY           SKY/WX    TMP DP  RH WIND       PRES   REMARKS
WASH NATIONAL  CLEAR     34  21  59 N8        30.26F
DULLES         CLEAR     29  21  72 NW7       30.25F
FORT BELVOIR   CLEAR     25  22  87 CALM      30.26F
QUANTICO       CLEAR     28  22  78 N6        30.27F
FREDERICKSBRG* CLEAR     32  24  73 CALM      30.25F
STAFFORD*      CLEAR     28  20  72 N3        30.29F
WARRENTON      CLEAR     23  23 100 CALM      30.24F
CULPEPER*      CLEAR     28  21  74 CALM      30.25F
MANASSAS*      CLEAR     28  25  86 CALM      30.25F
LEESBURG*      CLEAR     32  27  80 N6        30.26F
WINCHESTER     CLEAR     28  18  64 CALM      30.25S
FRONT ROYAL*   CLEAR     23  21  93 CALM      30.23F
LURAY*         CLEAR     23  23 100 CALM      30.23F
$$

VAZ048-049-060>072-079>083-200600-
CENTRAL AND SOUTH CENTRAL VIRGINIA

CITY           SKY/WX    TMP DP  RH WIND       PRES   REMARKS
RICHMOND       PTCLDY    31  21  66 N5        30.26S
CHESTERFIELD*  PTCLDY    34  14  44 NE5       30.26F
PETERSBURG*    PTCLDY    32  25  74 N3        30.26R
HANOVER        CLEAR     30  21  69 CALM      30.28R
TAPPAHANNOCK*  CLEAR     32  21  64 CALM      30.26S
QUINTON*       CLEAR     30  23  75 CALM      30.27R
CHARLOTTSVILLE CLEAR     29  21  72 S3        30.23S
GORDONSVILLE*  CLEAR     23  21  92 CALM      30.25R
ORANGE*        CLEAR     27  23  86 CALM      30.26S
LOUISA*        CLEAR     27  21  80 CALM      30.23S
BUMPASS*       CLEAR     31  22  69 CALM      30.25S
FARMVILLE*     PTCLDY    32  26  80 CALM      30.23S
CREWE*         FAIR      30  24  75 CALM      30.23S
FORT PICKETT*  FAIR      30  24  78 NE7       30.23S
CHASE CITY*    FAIR      35  28  77 CALM      30.23R
CLARKSVILLE*   FAIR      34  30  86 NE5       30.22R
SOUTH HILL*    FAIR      31  26  79 CALM      30.28F
LAWRENCEVILLE* FAIR      32  26  80 CALM      30.23S
EMPORIA*       MOCLDY    32  27  80 CALM      30.26F
$$

VAZ088>098-200600-
SOUTHEAST VIRGINIA

CITY           SKY/WX    TMP DP  RH WIND       PRES   REMARKS
NORFOLK        PTCLDY    39  28  64 N9        30.24S
VIRGINIA BEACH PTCLDY    32  26  78 CALM      30.23S
NORFOLK NAVAL  PTCLDY    41  27  57 N13       30.26S
WEST POINT*    CLEAR     30  24  78 CALM      30.28S
SALUDA*        FAIR      34  25  69 NW6       30.25S
NEWPORT NEWS   CLEAR     32  24  72 N6        30.25S
LANGLEY AFB    CLEAR     34  26  71 N8        30.25F
FORT EUSTIS    PTCLDY    34  25  68 N3        30.24S
WILLIAMSBURG*  PTCLDY    34  28  80 N7        30.26S
HR EXEC AP*    PTCLDY    27  23  86 CALM      30.27S
FRANKLIN*      PTCLDY    28  27  93 CALM      30.26R
WAKEFIELD      PTCLDY    30  24  78 CALM      30.26R
$$

VAZ020-022-025-037-045-200600-
WEST CENTRAL AND SOUTHWEST VIRGINIA

CITY           SKY/WX    TMP DP  RH WIND       PRES   REMARKS
STAUNTON*      CLEAR     28  21  75 CALM      30.24S
WAYNESBORO*    CLEAR     26  20  80 NW3       30.21S
HOT SPRINGS VA PTCLDY    21  21  98 CALM      30.06F
LYNCHBURG      MOCLDY    31  24  75 NE6       30.23R
DANVILLE       MOCLDY    33  26  75 N5        30.23R
SOUTH BOSTON*  FAIR      30  27  87 NE3       30.23R
MARTINSVILLE   MOCLDY    31  26  83 CALM      30.23R
ROANOKE        MOCLDY    33  22  63 NE10      30.22R WCI  25
BLACKSBURG     MOCLDY    27  22  80 CALM      30.20S
DUBLIN*        MOCLDY    30  26  84 CALM      30.19R
MARION*        MOCLDY    30  24  77 CALM      30.17S
HILLSVILLE*    CLOUDY    32  23  70 CALM      30.15R
RICHLANDS*     MOCLDY    28  22  79 NE6       30.14F
WISE*          PTCLDY    28  27  93 CALM      30.15F
ABINGDON*      MOCLDY    32  26  78 CALM      30.16S
$$

MDZ021>025-VAZ099-100-200600-
SOUTHERN MARYLAND AND THE DELMARVA PENINSULA

CITY           SKY/WX    TMP DP  RH WIND       PRES   REMARKS
PATUXENT RIVER CLEAR     33  23  66 NW12      30.25R WCI  24
BAY BRIDGE APT   N/A     34  25  69 NW13      30.24  WCI  25
LEONARDTOWN    CLEAR     30  23  74 NW3       30.26S
DOVER          CLEAR     30  22  72 W6        30.20S
GEORGETOWN     CLEAR     31  23  72 N3        30.23R
EASTON         CLEAR     32  28  84 NW3       30.27S
CAMBRIDGE      CLEAR     36  28  75 NW6       30.23F
SALISBURY      CLEAR     32  24  72 NW6       30.23R
OCEAN CITY     CLEAR     30  24  78 NW5       30.22S
WALLOPS ISLAND CLEAR     30  25  81 N8        30.23S
ACCOMACK*      CLEAR     36  27  69 NW6       30.23F
$$

NCZ012>017-030>032-200600-
NORTH CENTRAL AND EASTERN NORTH CAROLINA

CITY           SKY/WX    TMP DP  RH WIND       PRES   REMARKS
ROANOKE RAPIDS FAIR      32  28  86 NE6       30.24S
RALEIGH        MOCLDY    37  28  70 CALM      30.22R
ELIZABETH CITY PTCLDY    40  31  70 N6        30.24S
AHOSKIE*       PTCLDY    31  27  86 N3        30.25S
EDENTON*         N/A     34  31  87 NE3       30.23F
CURRITUCK*     PTCLDY    38  30  73 N3        30.25S
KILL DEVIL HLS PTCLDY    40  32  72 N3        30.22R
MANTEO         PTCLDY    39  32  76 N7        30.24R
CAPE HATTERAS  PTCLDY    41  33  73 NE3       30.22S
TARBORO*       MOCLDY    30  30 100 CALM      30.23S
GOLDSBORO      MOCLDY    38  37  95 E2        30.20R
WASHINGTON     PTCLDY    32  29  90 E3        30.22S
GREENVILLE     MOCLDY    34  32  93 CALM      30.22F
NEW BERN       PTCLDY    37  31  78 CALM      30.22F
WILMINGTON     MOCLDY    42  33  70 NE9       30.19S
$$

VAZ048-200600-
ELSEWHERE

CITY           SKY/WX    TMP DP  RH WIND       PRES   REMARKS
HARRISBURG PA  PTCLDY    29  20  69 NW7       30.21F
BALTIMORE      CLEAR     29  20  69 W5        30.24S
ANNAPOLIS      CLEAR     34  23  64 NW7       30.24F
ANDREWS AFB    CLEAR     31  21  68 NW8       30.24F
PHILADELPHIA   CLOUDY    34  20  56 VRB5      30.22S
HENDERSON NC   MOCLDY    33  28  83 CALM      30.22R
GREENSBORO     MOCLDY    40  26  57 CALM      30.19R
ROCKY MOUNT    MOCLDY    33  31  92 CALM      30.22S
$$

VAZ100-200600-
MARINE

STATION/POSITION TIME  TEMP    WIND        PRES    WAVE   SWELL
                       AIR SEA DIR/SP/G            HT/PER HT/PER
                 (UTC) (F)     (DEG/KT/KT) (MB)    (FT/S) (FT/S)
CAPE MAY NJ      0500   32 41   40/  3/  5 1023.0R
LEWES DE         0500   36 42  320/ 14/ 16 1023.1S
15NM E FENWICK I 0500   39 47              1022.5R   3/ 4
OCEAN-CITY-INLET 0500   34 44  330/  7/  9 1022.8F
WACHAPREAGUE VA  0500   33 42   CALM  /  1 1023.7S
THOMAS POINT MD  0500   33 41  320/ 11/ 12 1025.1F
GOOSES REEF MD   0500   36     VRB 14/ 16  1023.1F
COVE POINT MD    0500   35     350/ 18/ 20 1023.8F
SOLOMONS ISLAND  0500      43                N/A
BISHOPS HEAD MD  0500   33 37  330/  5/  6 1023.4S
POTOMAC MD       0500   35     350/ 12/ 14 1023.3S
CAMBRIDGE MD     0500   36 40  320/ 10/ 12 1023.6S
LEWISETTA VA     0500   36 43  350/ 10/ 16 1023.9F
RAPPAHANNOCK LGT 0500          350/ 18/ 19 1024.3R
STINGRAY PT      0500   37     350/ 10/ 14 1024.5S
YORK RVR RNG VA  0500   38     360/ 12/ 16 1023.4F
YORKTOWN VA      0500   36 45  340/  8/ 10 1024.0F
JAMESTOWN VA     0500   33     350/  4/  6   N/A
DOMINION TERM VA 0500   37      CALM  /  2 1024.1F
KIPTOPEKE VA     0500      49   30/  5/  6   N/A
CHES BAY BRIDGE  0500   40 46  360/ 14/ 16 1023.3F
CAPE HENRY VA    0500   40     360/ 14/ 15 1022.4F
CHESAPEAKE LGHT  0400   40     360/ 13/ 14 1024.4R
WILLOUBY STN VA  0500   38     360/ 10/ 11 1024.2F
S CRANEY ISL VA  0500           10/ 11/ 14 1023.9S
CAPE HENRY BUOY  0500      48                N/A     3/ 4
1ST LANDING BUOY 0500   41      10/ 14/ 17 1023.3F
CAPE CHARLES BUO 0500      47                N/A     2/ 4   2/10
64NM E OF VA BCH 0500   43 54  350/ 16/ 19 1022.7S   4/ 5   2/10
DUCK PIER NC     0500   42 47   10/ 12/ 14 1022.9S
44100 DUCK FRF   0500      52                N/A     4/ 6
44056 DUCK FRF   0500      47                N/A     3/ 6
OREGON INLET NC  0500   41 50  350/  5/  8 1023.5R
HATTERAS NC      0500   44 53   30/  7/ 10 1023.5F
DIAMOND SHLS NC  0500   46                 1023.5R   3/ 6
CAPE LOOKOUT NC  0400   46      20/  7/  8 1022.9R
$$


USA.gov is the U.S. government's official web portal to all federal, state and local government web resources and services.